Regional Weather Roundup
Issued by NWS

Home | Current Version | Previous Version | Text Only | Print | Product List | Glossary Off
Versions: 1 2 3 4 5 6 7 8 9 10 11 12 13 14 15 16 17 18 19 20 21 22 23 24 25 26 27 28 29 30 31 32 33 34 35 36 37 38 39 40 41 42 43 44 45 46 47 48 49 50

000
ASUS45 KBOI 051110
RWRID
WEATHER ROUNDUP FOR IDAHO
NATIONAL WEATHER SERVICE BOISE ID
500 AM MDT TUE MAY 05 2015

NOTE: "FAIR" INDICATES FEW OR NO CLOUDS BELOW 12000 FEET
WITH NO SIGNIFICANT WEATHER AND/OR OBSTRUCTIONS TO VISIBILITY

IDZ012-014-051200-
SOUTHWEST IDAHO


CITY           SKY/WX    TMP DP  RH WIND       PRES   REMARKS
BOISE          MOCLDY    57  35  43 NW9       29.80R
CALDWELL       MOCLDY    55  34  44 CALM      29.82R
MOUNTAIN HOME  MOCLDY    59  37  43 NW12      29.80R
$$

IDZ016-017-051200-
SOUTHCENTRAL IDAHO


CITY           SKY/WX    TMP DP  RH WIND       PRES   REMARKS
BURLEY         MOCLDY    51  40  65 NW5       29.82S
JEROME         MOCLDY    51  39  63 NE9       29.82S
TWIN FALLS     PTCLDY    53  38  56 S14       29.80F
$$

IDZ019>023-051200-
SOUTHEAST IDAHO


CITY           SKY/WX    TMP DP  RH WIND       PRES   REMARKS
IDAHO FALLS    CLEAR     42  39  89 NW6       29.87S
POCATELLO      CLOUDY    46  38  73 NW3       29.85F
REXBURG        CLEAR     44  36  73 NE5       29.88S
$$

IDZ006-010-011-018-031-032-051200-
CENTRAL IDAHO MOUNTAINS


CITY           SKY/WX    TMP DP  RH WIND       PRES   REMARKS
MCCALL         PTCLDY    42  37  82 CALM      29.84F
HAILEY         CLEAR     45  36  70 NW10      29.91F
STANLEY          N/A     29  25  85 SE5       29.95F WCI  24
SALMON           N/A     41  34  75 CALM      29.85R
CHALLIS        CLEAR     43  30  60 CALM      29.88S
$$

IDZ002-004-006-007-026-051200-
NORTHERN IDAHO


CITY           SKY/WX    TMP DP  RH WIND       PRES   REMARKS
LEWISTON       CLOUDY    56  33  42 W10       29.90R
LOWELL           N/A     51  45  79 CALM      29.91R
COEUR D`ALENE  PTCLDY    46  30  53 CALM      29.91R
MULLAN PASS    PTCLDY    38  26  62 W7        29.89F WCI  33
$$



USA.gov is the U.S. government's official web portal to all federal, state and local government web resources and services.